Terminal Aerodrome Forecast
Issued by NWS Omaha/Valley, NE

Home | Current Version | Previous Version | Text Only | Print | Product List | Glossary On
Versions: 1 2 3 4 5 6 7 8 9 10 11 12 13 14 15 16 17 18 19 20 21 22 23 24 25 26 27 28 29 30 31 32 33 34 35 36 37 38 39 40 41 42 43 44 45 46 47 48 49 50
000
FTUS43 KOAX 061120
TAFLNK
TAF
KLNK 061120Z 0612/0712 14014KT 6SM -SHRA BR OVC040
      TEMPO 0612/0614 5SM -RA BR OVC015
     FM061700 15015G25KT P6SM OVC040
     FM070200 16015G25KT 6SM -SHRA BR OVC040
      TEMPO 0703/0706 3SM -TSRA BR OVC025CB=

USA.gov is the U.S. government's official web portal to all federal, state and local government web resources and services.